COSMOS 252 DEB, 19309

Orbit data source: Space-Track

COSMOS 252 DEB, 19309 is space debris in LEO originally from a launch on Fri, 01 Nov 1968 UTC launched from the Tyuratam Missile And Space Complex (TTMTR). Debris objects in space refer to the collection of defunct objects orbiting the Earth. Examples of debris include non-operational satellites, rocket bodies, and fragments generated from explosions, collisions, or faulty payload assembly.

Loading next visibility...
Identifier
19309, 1968-097ES
Orbit
LEO
Country
Flag of CISCIS
Related business
Manufacturer
Unknown
Mission
Spacecraft
Bus & Motor
Unknown
Mass
Unknown
Launch date (UTC)
1968-11-01 (57 years ago)
Launch vehicle
Unknown
Launch site
Tyuratam Missile And Space Complex (TTMTR)
Object type
Payload
Rocket body
Debris
Shape & HBR
Unknown shape, 0.1 m
Radar Cross Section
Small (<0.1 m²)

Expand to show TLE details & history
Last TLE update: 1 day ago

TLE from 1 day ago
0 COSMOS 252 DEB
1 19309U 68097ES  25287.51223499  .00000045  00000-0  64487-4 0  9993
2 19309  62.3782 215.1998 0895611 218.3030 135.0995 13.04278133639163
Epoch: 2025-10-14T12:17Z
TLE epoch observation values (Epoch: 2025-10-14T12:17:37.103Z)
Latitude
-0.00004°
Longitude
7.49558°
Altitude
1,758.396 km
Speed
6.762 km/s
True Right ascension
14h 20m 47s
True Declination
0° 00' 00"
Sunlit
Object was in daylight at epoch
Visualization orbit readout
Latitude
Unknown
Longitude
Unknown
Altitude
Unknown
Speed
Unknown
Apparent Right ascension
Unknown
Apparent Declination
Unknown
Sunlit
N/A
Visualization observer readout
Local Sidereal Time
13:40:32
Azimuth
Unknown
Elevation
Unknown
Doppler factor
Unknown
Orbital elements
Apogee altitude
1,927.018 km
Perigee altitude
561.663 km
Semi-major axis
7,622.478 km
Eccentricity
0.08956
Inclination
62.3782°
RAAN
215.1998°
Arg. of periapsis
218.303°
True anomaly
141.79513°
Mean anomaly
135.0995°
Eccentric anomaly
138.49973°
Mean motion
3.26136 °/min
Orbital period
110.38 mins
BSTAR
0.000064487
Loading maneuver chart data...
Computing Atmospheric mass density...

Documentation

Showing up to 5 results
|